#timestamp,LO_Frequency,Hit,StdDev 
1550394015.4,286047000.1,N
1550394035.2,286047000.1,N
1550394055.1,286047001.9,N
1550394056.0,286047001.9,N
1550394075.8,286046999.7,N
1550394095.6,286047002.7,N
1550394115.5,286047001.1,N
1550394135.3,286047000.7,N
1550394155.2,286046999.2,N
1550394175.9,286046998.8,N
1550394195.7,286047001.0,N
1550394215.6,286047000.5,N
1550394235.4,286046999.4,N
1550394255.2,286046995.3,Y
1550394275.1,286046999.2,P
1550394276.0,286046999.2,N
1550394295.8,286047001.2,N
1550394315.7,286046998.3,N
1550394335.5,286046998.1,N
1550394355.3,286047001.1,N
1550394375.2,286047000.4,N
1550394395.9,286047000.0,N
1550394415.7,286047000.9,N
1550394435.6,286047000.9,N
1550394455.4,286047000.5,N
1550394475.2,286046999.2,N
1550394495.1,286046999.6,N
1550394496.0,286046999.6,N
1550394515.8,286046999.5,N
1550394535.7,286046998.2,N
1550394555.5,286046998.5,N
1550394575.3,286047000.8,N
1550394595.2,286047001.2,N
1550394615.0,286046999.3,N
1550394615.9,286046999.3,N
1550394635.8,286046994.9,Y
1550394655.6,286046997.2,P
1550394675.4,286046997.3,N
1550394695.3,286046995.4,P
1550394715.1,286046995.8,N
1550394716.0,286046995.8,N
1550394735.8,286046996.1,N
1550394755.7,286046996.1,N
1550394775.5,286046995.6,Y
1550394795.3,286046998.9,P
1550394815.2,286046998.7,N
1550394835.0,286046998.6,N
1550394835.9,286046998.6,N
1550394855.8,286046996.9,Y
1550394875.6,286047000.4,P
1550394895.4,286047002.3,N
1550394915.3,286047000.2,N
1550394935.1,286047000.1,N
1550394955.9,286047000.0,N
1550394975.7,286046999.7,N
1550394995.5,286047000.2,N
1550395015.4,286047000.0,N
1550395035.2,286047002.3,N
1550395055.0,286047000.5,N
1550395055.9,286047000.5,N
1550395075.8,286047002.2,N
1550395095.6,286047002.7,N
1550395115.4,286047000.0,N
1550395135.3,286047001.8,N
1550395155.1,286047002.2,N
1550395175.9,286047001.5,N
1550395195.7,286047003.1,N
1550395215.5,286047005.5,Y
1550395235.4,286047006.0,P
1550395255.2,286047005.1,N
1550395275.0,286047003.6,N
1550395275.9,286047003.6,N
1550395295.8,286047004.1,N
1550395315.6,286046999.9,N
1550395335.5,286046998.2,N
1550395355.3,286046999.1,N
1550395375.1,286046999.4,N
1550395395.9,286046999.3,N
1550395415.7,286046998.1,N
1550395435.5,286047000.5,N
1550395455.4,286047000.1,N
1550395475.2,286047001.2,N
1550395495.1,286046998.4,N
1550395496.0,286046998.4,N
1550395515.8,286046999.0,N
1550395535.6,286046998.1,N
1550395555.5,286046998.7,N
1550395575.3,286046998.5,N
1550395595.1,286046998.1,N
1550395615.9,286047001.2,N
1550395635.7,286047001.2,N
1550395655.6,286047000.0,N
1550395675.4,286047003.8,N
1550395695.2,286047001.4,N
1550395715.1,286046999.8,N
1550395716.0,286046999.8,N
1550395735.8,286047000.4,N
1550395755.6,286046998.2,N
1550395775.5,286046998.7,N
1550395795.3,286047000.7,N
1550395815.2,286047000.9,N
1550395835.9,286046996.7,N
1550395855.7,286047001.1,N
1550395875.6,286046998.1,N
1550395895.4,286046998.3,N
1550395915.2,286046998.8,N
1550395935.1,286046998.4,N
1550395936.0,286046998.4,N
1550395955.8,286046999.4,N
1550395975.7,286046997.2,N
1550395995.5,286046998.5,N
1550396015.3,286046997.1,N
1550396035.2,286046996.6,N
1550396055.9,286046998.5,N
1550396075.7,286047000.1,N
1550396095.6,286046999.8,N
1550396115.4,286047002.8,N
1550396135.2,286047002.4,N
1550396155.1,286047000.2,N
1550396156.0,286047000.2,N
1550396175.8,286046999.9,N
1550396195.7,286047000.6,N
1550396215.5,286047001.2,N
1550396235.3,286046999.2,N
1550396255.2,286046999.6,N
1550396275.0,286046997.4,N
1550396275.9,286046997.4,N
1550396295.8,286046997.9,N
1550396315.6,286046996.3,N
1550396335.4,286046996.1,N
1550396355.3,286046998.0,N
1550396375.1,286046997.7,N
1550396376.0,286046997.7,N
1550396395.8,286046997.0,N
1550396415.7,286046997.2,N
1550396435.5,286046996.2,N
1550396455.4,286046993.3,Y
1550396475.2,286046994.9,P
1550396495.0,286046996.9,N
1550396495.9,286046996.9,N
1550396515.8,286046996.2,N
1550396535.6,286046993.4,Y
1550396555.4,286046996.5,P
1550396575.3,286046997.3,P
1550396595.1,286046997.3,P
1550396615.9,286046997.2,Y
1550396635.7,286047000.2,P
1550396655.5,286047000.8,N
1550396675.4,286046998.1,N
1550396695.2,286047000.5,N
1550396715.1,286047000.3,N
1550396716.0,286047000.3,N
1550396735.8,286047000.6,N
1550396755.6,286046999.9,N
1550396775.5,286047002.1,N
1550396795.3,286047004.0,N
1550396815.1,286047004.1,N
1550396835.9,286046999.7,N
1550396855.7,286047002.4,N
1550396875.5,286047000.7,N
1550396895.4,286047002.4,N
1550396915.2,286047003.8,N
1550396935.1,286047003.5,N
1550396936.0,286047003.5,N
1550396955.8,286047005.6,N
1550396975.6,286047004.0,N
1550396995.5,286047003.3,N
1550397015.3,286047001.8,N
1550397035.1,286047001.6,N
1550397055.9,286047004.3,N
1550397075.7,286047003.8,N
1550397095.6,286047005.6,N
1550397115.4,286047003.3,N
1550397135.2,286047004.2,N
1550397155.1,286047004.3,N
1550397156.0,286047004.3,N
1550397175.8,286047002.4,N
1550397195.6,286047001.4,N
1550397215.5,286047002.5,N
1550397235.3,286047000.1,N
1550397255.2,286047000.3,N
1550397275.9,286046999.9,N
1550397295.7,286047002.8,N
1550397315.6,286047001.5,N
1550397335.4,286047006.0,Y
1550397355.2,286047000.8,P
1550397375.1,286046999.3,N
1550397376.0,286046999.3,N
1550397395.8,286047000.9,N
1550397415.7,286047000.1,N
1550397435.5,286046999.7,N
1550397455.3,286047002.7,N
1550397475.2,286047004.0,Y
1550397495.0,286047001.4,P
1550397495.9,286047001.4,P
1550397515.8,286046999.7,N
1550397535.6,286047000.2,N
1550397555.4,286047000.1,N
1550397575.3,286047002.8,Y
1550397595.1,286046999.8,P
